Weather History for Moses Lake, WA

Change the Weather History Date:

Thursday, June 12, 2014

  Actual Average Record
Temperature  
Mean Temperature 72 °F 65 °F  
Max Temperature 87 °F 79 °F 90 °F (1982)
Min Temperature 56 °F 51 °F 42 °F (2001)
Degree Days  
Heating Degree Days 0 2  
Month to date heating degree days 0 31  
Since 1 June heating degree days 0 31  
Since 1 July heating degree days 5627 5858  
Cooling Degree Days 7 2  
Month to date cooling degree days 64 24  
Year to date cooling degree days 99 49  
Since 1 June cooling degree days 64 24  
Growing Degree Days 20 (Base 50)    
Moisture  
Dew Point 42 °F    
Average Humidity 37    
Maximum Humidity 57    
Minimum Humidity 17    
Precipitation  
Precipitation 0.19 in 0.02 in 0.29 in (2000)
Month to date precipitation 0.19 0.38  
Year to date precipitation 2.97 4.40  
Sea Level Pressure  
Sea Level Pressure 29.66 in    
Wind  
Wind Speed 9 mph (WSW)    
Max Wind Speed 29 mph    
Max Gust Speed 40 mph    
Visibility 9 miles    
Events Rain , Thunderstorm    
T = Trace of Precipitation, MM = Missing Value Source: NWS Daily Summary

Daily Weather History Graph

Daily Weather History Graph

Search for Another Location

Airport:

Trip Planner

Search our weather history database for the weather conditions in past years. The results will help you decide how hot, cold, wet, or windy it might be!

Date:

Astronomy

Jun. 12, 2014 Rise Set
Actual Time 5:00 AM PDT 8:53 PM PDT
Civil Twilight 4:21 AM PDT 9:33 PM PDT
Nautical Twilight 3:26 AM PDT 10:28 PM PDT
Astronomical Twilight 2:04 AM PDT 11:50 PM PDT
Moon 8:25 PM PDT (6/12) 4:52 AM PDT (6/12)
Length of Visible Light 17h 12m
Length of Day
15h 52m
Full, 100% of the Moon is Illuminated
Jun 12
Full
Jun 12
Full
Jun 19
Last Quarter
Jun 27
New
Jul 5
First Quarter

Hourly Weather History & Observations

Time (PDT) Temp. Dew Point Humidity Pressure Visibility Wind Dir Wind Speed Gust Speed Precip Events Conditions
12:52 AM 59.0 °F 37.9 °F 46% 29.76 in 10.0 mi North 5.8 mph - N/A   Clear
1:52 AM 60.1 °F 37.0 °F 42% 29.76 in 10.0 mi North 5.8 mph - N/A   Clear
2:52 AM 59.0 °F 36.0 °F 42% 29.75 in 10.0 mi North 6.9 mph - N/A   Clear
3:52 AM 57.0 °F 37.0 °F 47% 29.74 in 10.0 mi North 6.9 mph - N/A   Clear
4:52 AM 55.9 °F 37.9 °F 51% 29.74 in 10.0 mi North 5.8 mph - N/A   Clear
5:52 AM 57.9 °F 39.9 °F 51% 29.73 in 10.0 mi North 3.5 mph - N/A   Clear
6:52 AM 62.1 °F 39.0 °F 43% 29.71 in 10.0 mi North 9.2 mph - N/A   Partly Cloudy
7:52 AM 68.0 °F 39.9 °F 36% 29.72 in 10.0 mi North 3.5 mph - N/A   Partly Cloudy
8:52 AM 69.1 °F 39.9 °F 35% 29.71 in 10.0 mi NE 5.8 mph - N/A   Mostly Cloudy
9:52 AM 73.0 °F 41.0 °F 31% 29.70 in 10.0 mi Calm Calm - N/A   Partly Cloudy
10:52 AM 75.9 °F 43.0 °F 31% 29.68 in 10.0 mi WSW 6.9 mph - N/A   Partly Cloudy
11:52 AM 80.1 °F 41.0 °F 25% 29.66 in 10.0 mi Variable 5.8 mph - N/A   Mostly Cloudy
12:52 PM 82.9 °F 37.9 °F 20% 29.65 in 10.0 mi WSW 9.2 mph - N/A   Scattered Clouds
1:52 PM 86.0 °F 37.4 °F 18% 29.64 in 10.0 mi SW 12.7 mph 17.3 mph N/A   Mostly Cloudy
2:52 PM 84.0 °F 36.0 °F 18% 29.61 in 10.0 mi SSW 5.8 mph - N/A   Partly Cloudy
3:52 PM 86.0 °F 37.0 °F 18% 29.59 in 10.0 mi SW 10.4 mph 17.3 mph N/A   Clear
4:52 PM 82.0 °F 41.0 °F 23% 29.57 in 10.0 mi South 24.2 mph 28.8 mph N/A   Clear
5:05 PM 81.0 °F 41.0 °F 24% 29.60 in 10.0 mi South 18.4 mph - N/A Thunderstorm Partly Cloudy
5:12 PM 77.0 °F 45.0 °F 32% 29.61 in 6.0 mi SSW 23.0 mph 34.5 mph N/A Thunderstorm Unknown
5:22 PM 71.1 °F 52.0 °F 51% 29.62 in 4.0 mi SW 16.1 mph 27.6 mph 0.03 in Rain Light Rain
5:27 PM 71.1 °F 51.1 °F 49% 29.62 in 4.0 mi SSW 12.7 mph 27.6 mph 0.05 in Rain , Thunderstorm Thunderstorms and Rain
5:52 PM 70.0 °F 48.0 °F 46% 29.61 in 6.0 mi ENE 12.7 mph 40.3 mph 0.19 in Rain , Thunderstorm Light Thunderstorms and Rain
5:59 PM 72.0 °F 48.9 °F 44% 29.62 in 10.0 mi East 10.4 mph - 0.00 in Thunderstorm Thunderstorm
6:09 PM 75.9 °F 46.9 °F 36% 29.61 in 10.0 mi Variable 6.9 mph - 0.00 in   Partly Cloudy
6:52 PM 77.0 °F 42.8 °F 29% 29.60 in 10.0 mi WSW 10.4 mph - N/A   Clear
7:52 PM 73.9 °F 46.9 °F 38% 29.59 in 10.0 mi SSW 8.1 mph - N/A   Clear
8:52 PM 68.0 °F 46.9 °F 47% 29.62 in 10.0 mi West 17.3 mph - N/A   Clear
9:52 PM 64.9 °F 46.0 °F 50% 29.66 in 10.0 mi WSW 17.3 mph - N/A   Mostly Cloudy
10:52 PM 63.0 °F 45.0 °F 52% 29.67 in 10.0 mi SW 10.4 mph - N/A   Scattered Clouds
11:52 PM 59.0 °F 45.0 °F 60% 29.68 in 10.0 mi SSW 12.7 mph - N/A   Clear